Temperature
9 8 8 8 9 9 9 9 9 10 10 10 10 9 10 11 11 11 13 14 15 16 16 17 17 17 17 17 17 17 17 17 18 18 17 17 17 17 17 17 16 16 15 15
8 8 9 9 9 9 9 9 9 9 9 10 8 8 9 9 10 12 12 13 14 15 16 16 16 16 16 17 17 17 17 17 17 17 18 18 18 18 17 17 17 16 16 15
9 9 9 10 9 9 9 9 9 9 9 8 7 9 9 9 9 10 11 11 12 13 14 15 15 16 16 16 17 17 17 17 17 17 17 16 16 16 16 16 16 16 16 16
8 9 9 9 9 9 9 9 9 9 8 7 7 7 8 8 7 8 10 10 11 12 13 14 15 15 15 16 16 16 16 16 16 16 16 16 16 15 16 16 16 16 16 16
8 8 9 9 9 9 8 8 8 7 7 6 6 7 8 7 9 9 9 9 10 11 12 13 13 14 14 15 15 15 16 16 16 16 16 16 16 16 16 16 16 16 16 16
7 8 8 8 8 8 7 7 6 5 5 6 6 6 7 7 9 8 8 9 10 11 12 12 13 13 13 14 14 14 15 15 15 15 15 16 16 16 16 15 15 15 15 15
7 7 8 8 7 7 8 7 6 7 5 5 5 5 6 7 7 7 7 9 10 11 12 12 12 12 13 13 13 13 14 14 14 15 15 15 15 15 15 15 15 15 15 15
7 7 8 8 8 7 7 7 7 7 7 5 5 4 6 7 7 9 9 10 11 11 11 11 11 11 11 12 12 12 13 13 14 14 14 14 15 14 15 15 15 15 15 15
6 6 7 8 8 7 6 6 6 4 4 4 5 5 5 8 8 8 9 10 10 11 10 10 10 10 10 11 11 11 12 12 13 13 13 14 14 14 14 14 14 14 14 14
6 6 7 8 8 7 7 5 4 4 5 6 6 5 6 8 9 8 7 9 10 10 10 9 9 9 9 9 10 10 11 11 11 12 12 13 13 13 13 13 13 13 13 13
6 5 6 7 7 6 6 5 4 3 4 5 6 8 7 7 8 7 7 9 10 9 9 8 8 8 8 9 9 9 9 10 10 11 11 12 12 12 13 13 12 12 11 11
6 5 5 6 6 6 6 5 4 4 3 3 3 6 8 7 7 7 8 9 9 8 8 7 7 7 8 8 8 8 8 9 9 10 10 11 11 12 12 11 11 10 10 10
6 5 4 5 5 5 6 5 5 4 3 2 3 6 7 7 7 8 9 9 8 7 7 6 6 6 6 7 7 7 7 8 8 9 9 10 10 10 10 10 9 9 9 9
6 5 4 5 5 4 5 5 4 4 3 3 3 4 7 7 8 8 8 8 7 6 5 5 5 5 5 6 6 6 7 7 7 8 8 9 9 9 8 8 8 8 8 8
7 5 5 5 5 5 5 5 4 4 4 3 4 4 6 8 8 8 8 7 5 4 4 3 3 4 4 5 5 5 6 6 6 7 7 8 8 8 7 7 7 7 7 7
6 5 4 4 5 5 4 5 5 5 5 5 5 6 8 8 8 8 7 5 4 3 2 2 2 3 3 4 4 4 5 5 5 6 6 6 6 6 6 6 6 6 5 5
5 4 4 4 6 5 5 5 5 5 5 5 6 7 7 7 7 7 6 4 3 2 1 1 1 1 2 2 3 3 3 3 4 4 4 4 4 4 4 4 4 3 3 2
4 4 4 5 5 5 6 7 6 6 6 6 7 7 8 8 8 7 6 4 3 1 1 1 1 1 1 1 1 1 2 2 2 2 2 2 2 2 2 2 2 1 1 0
5 5 5 5 5 5 7 7 6 6 7 7 7 7 8 8 7 6 5 4 2 1 1 0 0 0 0 0 0 1 1 1 1 1 1 1 1 1 1 0 0 0 -0 -0
5 5 5 6 6 6 8 8 8 8 8 9 8 7 7 6 6 6 5 4 2 1 1 0 -0 -0 -0 -0 -0 -0 0 0 0 -0 -0 -0 -0 -0 -0 -0 -0 -0 -0 -0
5 5 6 6 6 6 7 8 8 8 9 9 9 8 7 6 6 6 5 4 3 2 1 1 0 0 0 -0 -0 -0 -0 -0 -1 -0 -0 -0 -0 -0 -0 -0 -0 -0 -0 -0
6 6 6 6 6 6 8 7 7 8 9 9 8 8 7 6 6 6 5 4 3 3 2 2 1 1 1 0 0 0 -0 -0 -0 -0 -0 -0 -0 -0 -0 -0 -0 -0 -0 -1
5 5 5 6 7 8 8 8 10 9 9 9 8 8 7 6 6 5 5 4 4 3 3 3 2 2 2 1 1 1 1 0 0 0 0 0 0 -0 -0 -1 -1 -1 -1 -1
4 4 5 5 5 7 8 9 9 9 9 9 8 8 7 6 6 5 5 5 4 4 4 3 3 3 2 2 1 1 1 1 1 1 0 -0 -0 -0 -1 -1 -1 -2 -2 -2
5 4 4 5 5 7 9 9 9 9 9 9 8 8 7 6 6 5 5 5 4 4 4 3 3 3 2 2 2 1 1 1 1 0 0 -0 -1 -1 -1 -1 -2 -2 -2 -3
4 4 5 5 6 6 7 9 8 8 9 8 8 8 7 6 6 5 5 4 4 4 4 3 3 3 2 2 2 1 1 0 0 0 -0 -1 -1 -1 -2 -2 -2 -3 -3 -3
Wind_Speed
7 6 9 10 8 5 8 7 5 3 2 3 6 8 13 11 8 11 12 12 13 12 11 9 9 9 9 8 10 11 11 12 11 10 13 13 14 13 12 12 15 17 18 19
6 7 6 8 8 7 7 6 3 1 4 3 6 10 12 11 9 9 10 11 12 11 11 9 8 8 9 9 9 10 11 11 11 12 12 10 11 10 12 10 11 17 17 18
6 5 9 9 8 7 4 5 4 1 4 4 6 9 8 6 4 6 7 8 9 10 12 11 9 9 8 9 10 9 11 11 11 12 8 5 5 4 7 9 11 12 16 18
4 3 8 10 8 7 4 3 5 4 3 4 5 6 9 6 9 6 7 8 8 9 9 9 9 9 8 9 8 8 9 9 10 10 9 11 12 12 12 12 12 12 15 17
4 3 7 8 6 7 5 5 6 4 4 2 1 2 10 5 5 6 8 8 8 7 7 7 8 7 7 7 6 5 6 7 8 8 11 13 14 13 9 8 11 12 12 13
4 3 3 4 5 7 8 7 6 5 4 2 3 5 8 4 4 7 9 9 9 9 9 8 8 8 8 8 7 6 6 7 6 7 9 11 14 13 10 11 12 11 9 10
4 4 3 5 7 5 5 5 3 3 2 5 2 4 9 6 6 6 9 10 9 8 9 10 12 12 11 10 9 7 7 7 7 6 8 10 12 13 14 14 14 12 10 10
5 3 1 2 5 6 4 6 5 4 3 4 2 6 8 6 7 6 6 6 8 10 10 10 10 10 10 10 9 8 8 8 7 7 8 9 10 9 9 12 11 13 13 14
5 3 2 3 3 8 6 4 4 6 3 3 5 7 9 4 2 3 6 8 11 11 11 11 11 10 11 11 11 9 9 9 9 8 8 8 8 9 10 10 10 8 8 7
6 6 2 2 6 6 5 7 5 5 4 4 6 5 5 5 4 7 9 10 12 12 12 12 11 11 11 11 11 10 9 9 9 8 7 7 8 8 8 7 9 8 7 8
4 6 3 3 3 5 5 5 5 4 3 4 3 6 6 6 4 6 9 11 11 12 12 11 12 12 12 11 11 10 9 9 8 8 7 7 6 5 5 6 7 8 8 10
4 5 3 1 2 3 5 6 6 5 4 4 3 8 6 6 6 7 10 11 10 10 10 10 11 12 12 12 11 10 9 8 8 7 7 6 4 3 4 5 6 8 10 11
5 6 4 2 2 1 3 5 5 5 5 5 4 8 4 3 8 9 10 10 10 10 10 10 11 12 12 12 10 9 9 8 7 6 5 3 1 3 4 6 7 9 11 11
5 4 5 6 4 5 4 6 7 6 5 5 8 10 12 13 14 14 12 10 8 9 10 11 12 12 12 10 9 9 9 8 7 6 4 2 1 4 6 8 9 10 12 13
5 4 2 2 2 4 6 7 9 9 9 8 8 8 15 15 15 13 9 8 9 10 11 11 12 12 12 10 9 9 9 8 7 6 6 5 6 8 9 11 11 12 13 14
4 4 2 2 1 4 5 9 11 10 9 11 11 14 16 12 8 8 7 7 9 10 10 11 11 11 11 10 9 9 9 9 8 8 8 9 10 11 12 13 14 14 14 14
4 5 2 2 2 2 7 10 13 8 8 9 12 12 11 11 10 7 6 5 7 8 9 9 9 9 9 9 8 8 8 8 9 10 10 11 12 13 13 14 15 15 14 14
7 5 3 1 2 5 6 3 8 8 8 11 10 12 11 10 8 3 0 3 5 6 7 7 7 7 7 8 8 8 8 9 9 10 10 11 12 13 13 14 14 13 12 12
5 6 3 1 3 6 7 3 7 7 6 8 12 14 11 6 5 2 2 1 2 3 4 4 5 5 6 7 7 7 8 9 9 10 10 10 11 12 12 12 12 11 12 11
4 5 3 2 3 4 4 1 4 4 3 4 6 8 7 3 3 3 3 1 1 2 3 4 4 5 6 7 6 8 8 9 9 9 9 9 10 11 11 11 11 10 10 10
4 4 5 5 4 7 6 2 4 3 4 3 4 6 5 4 5 2 4 2 2 2 3 4 5 5 6 6 6 8 8 8 8 8 9 10 10 10 10 10 10 10 10 10
8 7 6 6 6 7 3 6 6 5 3 3 4 4 5 5 3 4 4 4 3 2 3 4 4 5 6 6 6 8 7 6 7 8 9 10 9 9 9 10 9 9 9 9
8 8 6 7 8 4 3 6 6 3 5 5 4 4 3 4 5 5 5 5 4 4 3 4 5 5 6 5 6 7 5 6 7 9 10 9 10 9 8 8 8 7 7 6
5 5 4 5 8 7 8 8 7 6 6 5 5 4 4 5 6 7 6 6 5 5 4 4 5 6 5 5 6 5 5 6 8 9 8 8 8 8 8 6 6 6 5 5
5 6 5 6 7 7 5 3 4 4 5 5 5 4 6 6 7 8 7 7 6 5 5 5 5 6 6 5 6 5 5 7 9 8 7 7 7 7 7 6 5 5 3 4
4 6 6 6 5 3 6 6 5 5 6 6 5 4 4 6 7 8 8 7 7 7 6 6 6 6 6 6 6 5 5 7 8 7 6 5 5 5 5 5 5 8 6 8
Wind_Direction
145 157 183 183 165 150 152 151 176 222 352 330 276 279 281 279 266 260 263 267 271 271 265 255 245 245 245 238 228 227 224 222 212 204 207 210 214 213 210 210 206 198 194 188
138 195 175 147 140 117 123 136 167 303 4 349 307 285 272 267 251 248 258 267 275 284 293 284 266 253 241 237 229 225 225 225 216 210 208 208 210 213 212 208 203 199 192 188
144 155 150 146 151 145 132 150 167 196 357 38 338 304 294 298 319 308 297 293 296 291 293 297 294 278 265 252 239 229 222 222 220 213 205 192 188 193 200 204 206 199 192 189
97 113 147 154 166 152 175 160 137 114 53 329 21 317 293 305 327 328 335 335 322 313 305 305 307 302 287 270 258 241 231 227 224 212 202 198 206 214 212 210 209 199 193 191
114 137 146 157 155 137 130 94 95 95 108 340 358 217 284 335 333 332 334 336 334 334 340 340 333 323 320 316 306 282 259 244 233 218 211 208 215 219 212 203 202 200 196 194
79 66 92 118 100 121 122 87 69 59 75 280 226 192 279 283 271 307 319 332 343 350 0 3 0 2 356 350 344 331 307 279 259 237 223 217 219 217 206 201 204 202 197 196
82 56 55 97 93 85 112 109 55 354 2 248 189 217 254 269 270 279 300 318 333 347 357 357 356 352 347 342 338 332 322 301 286 260 239 227 226 221 215 210 209 203 198 200
122 128 109 100 133 150 157 143 165 201 232 284 218 239 257 269 281 289 298 311 335 349 350 346 339 333 327 321 320 321 315 302 293 275 257 242 232 225 224 218 212 208 207 206
130 109 46 77 102 125 125 125 129 119 102 288 271 280 302 307 9 348 339 343 345 338 334 331 326 322 317 310 305 302 301 296 291 282 271 259 240 226 224 218 214 211 205 190
118 107 84 96 82 50 126 134 109 131 165 263 293 274 259 294 334 340 337 331 325 325 325 325 321 317 312 303 297 295 288 282 283 283 272 263 250 235 225 210 207 198 178 160
96 109 96 89 140 154 115 106 102 101 138 166 283 280 223 224 281 307 308 308 310 315 317 319 319 317 313 309 303 299 298 294 292 291 284 270 256 238 214 205 197 178 161 155
106 107 117 99 347 181 144 152 143 150 188 172 202 271 265 236 271 280 291 297 304 309 315 320 321 323 323 319 315 312 311 306 298 294 288 273 253 212 186 176 160 152 151 150
118 108 101 31 347 30 164 163 149 129 126 161 199 265 293 311 303 295 297 305 315 325 332 332 331 331 326 322 321 324 325 318 314 311 306 295 221 162 150 139 133 135 136 135
108 107 152 184 214 177 190 188 167 146 169 202 230 262 290 301 304 308 312 316 326 334 337 338 338 334 329 326 330 335 338 337 339 342 347 348 125 125 121 119 119 122 125 125
97 112 158 217 227 177 200 194 188 196 195 206 239 249 276 289 295 300 307 326 336 339 343 345 343 337 338 342 348 352 352 355 4 22 35 47 80 96 103 105 107 109 111 113
95 114 101 330 257 216 235 223 206 213 219 236 261 278 273 278 287 297 317 334 335 337 342 344 344 345 349 352 356 2 9 12 29 47 54 63 78 86 92 97 100 102 104 107
111 123 116 298 281 313 261 226 201 200 206 204 235 248 272 290 299 308 320 333 332 335 339 343 344 348 352 359 6 15 22 32 47 56 62 69 79 85 89 95 97 99 101 103
130 131 140 276 353 258 245 218 181 199 228 214 234 257 273 281 298 295 97 332 331 335 337 342 346 353 1 11 21 31 39 48 58 65 70 76 85 89 90 93 96 98 101 102
137 139 153 217 277 280 291 232 169 182 257 225 232 257 273 300 318 272 146 53 340 335 339 348 359 9 17 23 28 43 50 53 60 65 70 77 86 91 92 94 96 99 100 99
110 117 155 204 253 258 253 280 167 139 275 254 220 256 277 319 308 275 147 111 48 12 9 17 20 28 33 30 37 53 54 56 58 62 69 74 82 89 92 94 94 94 96 96
159 173 204 221 244 265 252 205 141 169 229 273 247 259 262 226 223 163 137 126 103 61 52 48 42 41 38 40 53 60 57 55 58 67 73 75 80 85 89 89 88 91 92 91
183 189 196 194 217 253 225 144 181 223 252 268 264 257 247 225 169 151 155 142 127 102 79 69 61 52 47 55 69 70 61 58 66 72 76 75 75 80 84 86 85 85 91 91
198 195 190 201 219 243 199 212 240 229 254 261 246 249 230 210 192 177 170 157 143 129 106 91 85 72 60 61 75 82 71 75 80 78 75 75 74 71 74 82 85 80 80 89
243 193 192 243 261 260 261 262 268 244 235 249 246 245 210 207 191 178 170 162 152 141 130 121 109 96 80 71 73 79 86 89 90 85 78 76 77 73 65 65 75 84 88 93
224 174 199 246 273 296 290 267 275 268 250 258 258 230 214 200 189 179 174 168 158 148 140 132 126 116 108 97 86 84 91 99 94 86 82 78 77 81 74 69 74 87 89 122
207 186 190 227 239 241 277 292 299 278 267 257 246 235 208 196 186 173 170 165 157 151 145 140 133 127 121 113 102 96 101 108 109 100 89 84 84 80 80 80 70 77 87 86
Height
1466 1472 1474 1477 1480 1483 1488 1492 1494 1493 1492 1492 1491 1490 1484 1480 1480 1479 1477 1477 1476 1476 1478 1480 1482 1483 1484 1485 1486 1487 1489 1491 1492 1493 1495 1496 1498 1500 1503 1506 1508 1511 1512 1515
1468 1471 1471 1475 1479 1483 1487 1492 1494 1494 1493 1492 1493 1489 1480 1474 1474 1473 1473 1472 1472 1472 1472 1473 1475 1476 1476 1477 1479 1480 1481 1483 1485 1486 1487 1489 1491 1493 1496 1499 1501 1504 1506 1509
1463 1468 1470 1474 1480 1484 1488 1491 1493 1494 1494 1496 1496 1486 1479 1471 1471 1470 1470 1470 1469 1469 1467 1467 1467 1467 1468 1469 1471 1472 1474 1476 1478 1479 1481 1482 1483 1485 1487 1490 1493 1496 1499 1501
1466 1468 1470 1474 1479 1482 1488 1489 1492 1494 1498 1502 1501 1501 1483 1475 1473 1470 1470 1468 1467 1466 1464 1463 1462 1462 1462 1463 1463 1465 1467 1469 1471 1473 1473 1474 1475 1476 1478 1482 1485 1488 1491 1494
1468 1469 1471 1475 1478 1481 1488 1490 1494 1498 1501 1506 1506 1505 1487 1479 1474 1472 1470 1468 1466 1465 1463 1461 1461 1460 1460 1460 1459 1460 1461 1462 1464 1465 1466 1467 1468 1470 1472 1475 1477 1480 1483 1486
1470 1471 1473 1476 1480 1483 1489 1495 1501 1506 1507 1509 1505 1507 1492 1481 1476 1474 1470 1467 1465 1463 1462 1460 1460 1459 1458 1458 1457 1457 1457 1458 1458 1459 1460 1460 1461 1463 1465 1466 1469 1471 1473 1476
1473 1475 1476 1477 1482 1487 1489 1496 1505 1505 1512 1511 1507 1508 1493 1478 1475 1474 1471 1467 1465 1463 1461 1459 1458 1456 1456 1455 1455 1454 1453 1453 1454 1454 1454 1454 1455 1456 1457 1459 1461 1463 1464 1467
1475 1480 1478 1479 1481 1486 1489 1492 1501 1503 1504 1510 1508 1506 1487 1476 1473 1471 1469 1467 1465 1462 1461 1459 1457 1455 1453 1452 1451 1450 1449 1448 1449 1448 1448 1449 1449 1450 1451 1452 1454 1455 1456 1459
1476 1482 1481 1480 1481 1485 1491 1496 1498 1509 1516 1514 1504 1498 1485 1472 1471 1470 1469 1467 1464 1462 1460 1458 1455 1452 1450 1447 1446 1444 1443 1442 1442 1442 1442 1442 1443 1443 1444 1445 1446 1447 1449 1451
1473 1483 1482 1482 1483 1487 1489 1495 1504 1510 1509 1504 1500 1497 1488 1475 1472 1470 1468 1466 1463 1461 1458 1455 1452 1448 1445 1442 1440 1438 1437 1436 1436 1436 1436 1436 1436 1437 1437 1438 1438 1440 1441 1444
1473 1482 1486 1484 1486 1489 1493 1497 1503 1511 1511 1512 1501 1488 1476 1475 1472 1471 1468 1466 1463 1460 1456 1452 1448 1444 1440 1437 1434 1431 1430 1429 1428 1429 1429 1429 1429 1430 1430 1431 1431 1433 1434 1436
1473 1482 1489 1489 1488 1487 1489 1494 1501 1508 1514 1516 1517 1495 1470 1471 1470 1469 1467 1464 1461 1458 1453 1449 1444 1440 1436 1432 1429 1426 1424 1423 1422 1422 1422 1422 1422 1423 1424 1424 1425 1427 1429 1431
1473 1483 1494 1494 1495 1492 1490 1493 1496 1501 1509 1518 1514 1491 1469 1469 1468 1466 1463 1460 1457 1453 1449 1445 1441 1436 1432 1428 1425 1423 1420 1418 1417 1416 1416 1416 1416 1417 1418 1419 1420 1422 1424 1427
1471 1481 1489 1491 1488 1490 1491 1492 1494 1498 1507 1509 1503 1488 1472 1467 1465 1462 1459 1456 1453 1450 1446 1442 1438 1434 1430 1426 1423 1420 1417 1415 1414 1413 1412 1411 1411 1412 1413 1414 1416 1418 1421 1423
1472 1482 1484 1485 1484 1486 1487 1488 1491 1493 1495 1497 1489 1485 1471 1465 1463 1459 1456 1453 1450 1447 1444 1440 1436 1432 1428 1425 1422 1419 1416 1414 1412 1410 1409 1409 1409 1409 1410 1411 1413 1415 1418 1421
1473 1482 1485 1486 1483 1485 1485 1484 1485 1487 1487 1486 1483 1477 1463 1460 1459 1456 1454 1451 1448 1446 1442 1439 1435 1432 1428 1425 1422 1419 1416 1413 1411 1409 1408 1408 1407 1408 1408 1409 1411 1413 1416 1419
1476 1481 1486 1486 1481 1481 1482 1474 1476 1478 1476 1476 1477 1469 1460 1458 1456 1454 1452 1449 1447 1445 1442 1438 1435 1432 1429 1425 1423 1420 1417 1414 1412 1410 1409 1408 1408 1408 1408 1409 1411 1414 1416 1420
1476 1481 1484 1483 1482 1486 1471 1462 1465 1468 1467 1467 1465 1461 1457 1456 1454 1451 1450 1448 1446 1444 1441 1438 1435 1432 1429 1427 1424 1421 1419 1416 1414 1412 1411 1410 1410 1410 1411 1412 1414 1417 1420 1424
1472 1477 1481 1480 1480 1476 1465 1460 1462 1465 1463 1459 1460 1457 1454 1453 1451 1449 1448 1447 1445 1443 1441 1438 1435 1433 1430 1428 1425 1423 1421 1419 1417 1415 1415 1415 1415 1415 1416 1417 1419 1422 1425 1428
1473 1475 1479 1478 1478 1473 1462 1457 1456 1460 1460 1455 1454 1453 1452 1452 1453 1450 1447 1445 1444 1442 1440 1438 1436 1433 1431 1429 1428 1426 1424 1422 1421 1420 1420 1420 1420 1421 1422 1423 1425 1428 1431 1434
1473 1474 1475 1474 1473 1469 1457 1455 1457 1462 1459 1453 1451 1450 1449 1449 1449 1447 1446 1445 1443 1442 1440 1438 1437 1435 1433 1432 1431 1429 1428 1427 1426 1426 1426 1426 1427 1427 1429 1430 1432 1435 1437 1439
1466 1467 1468 1469 1470 1467 1452 1454 1456 1454 1450 1449 1448 1446 1445 1445 1444 1444 1444 1444 1443 1442 1441 1440 1438 1437 1436 1435 1434 1434 1432 1432 1432 1432 1432 1432 1433 1434 1436 1437 1439 1440 1442 1443
1462 1462 1461 1462 1459 1451 1450 1450 1449 1448 1448 1446 1445 1443 1442 1442 1441 1442 1442 1443 1443 1442 1442 1441 1441 1440 1439 1439 1439 1438 1438 1438 1438 1438 1438 1439 1439 1440 1441 1442 1443 1444 1445 1446
1457 1455 1457 1457 1451 1448 1447 1447 1446 1445 1444 1443 1442 1440 1439 1439 1439 1439 1440 1441 1442 1442 1442 1442 1443 1442 1442 1442 1443 1442 1442 1443 1443 1443 1443 1444 1444 1445 1445 1446 1447 1447 1448 1448
1451 1453 1454 1452 1448 1445 1443 1444 1443 1443 1441 1440 1439 1437 1436 1436 1436 1437 1438 1439 1440 1441 1442 1443 1444 1444 1444 1445 1445 1445 1446 1447 1447 1447 1447 1448 1448 1448 1449 1449 1449 1449 1449 1449
1447 1448 1450 1448 1444 1445 1442 1441 1441 1439 1438 1437 1435 1434 1433 1433 1433 1434 1435 1437 1439 1440 1441 1443 1444 1445 1446 1447 1447 1448 1449 1450 1450 1450 1450 1451 1451 1450 1450 1450 1450 1450 1450 1449